[[{"header":{"parameterUnit":"m.s-1","parameterCategory":1,"la1":30.2991,"la2":30.254,"lo1":-89.0895,"lo2":-89.0444,"dy":0.0017,"dx":0.0017,"nx":28,"ny":28,"refTime":"2025-04-09T21:00:00:Z","depth":0,"parameterNumber":2,"parameterNumberName":"U-component_of_WINDS"},"data":[0,0,0,0,0,0,0,0,0,0,0,0,0,0,0,0,0,0,0,0,0,0,0,0,0,0,0,0,0,0,0,0,0,0,0,0,0,0,0,0,0,0,0,0,0,0,0,0,0,0,0,0,0,0,0,0,0,0,2.7636,2.7637,0,2.7742,2.7744,2.7745,2.7743,2.7741,2.774,2.7738,2.7853,2.7858,2.7862,0,0,0,0,0,0,0,0,0,0,0,0,0,2.7435,2.7439,2.7635,2.7637,2.7638,2.7742,2.7744,2.7745,2.7743,2.7741,2.7739,2.7738,2.7852,2.7857,2.7862,0,0,0,0,0,0,0,0,0,0,0,0,0,2.753,2.744,2.7635,2.7649,2.7652,2.7742,2.7744,2.7746,2.7743,2.7741,2.7739,2.7737,2.785,2.7857,2.7863,2.7948,0,0,2.7883,2.7886,0,0,0,0,0,0,0,0,2.7525,2.7537,2.7646,2.7649,2.7651,2.7727,2.7715,2.7814,2.7744,2.7709,2.7738,2.7736,2.7813,2.7823,2.7848,2.7953,2.7958,2.7884,2.7888,2.7891,2.7893,0,0,0,0,0,0,0,2.7518,2.7533,2.7678,2.7648,2.7651,2.7652,2.7663,2.7734,2.7772,2.7712,2.7712,2.7724,2.7815,2.7842,2.7851,2.796,2.7884,2.789,2.7894,2.7896,2.8141,2.8143,0,0,0,0,0,0,2.7508,2.7527,2.7675,2.7681,2.7581,2.7658,2.767,2.7705,2.7771,2.7779,2.7726,2.7724,2.7831,2.7843,2.7855,2.7958,2.7891,2.7897,2.7901,2.8139,2.8142,2.8144,0,0,0,0,0,0,2.7503,2.7521,2.767,2.7604,2.7623,2.7663,2.7703,2.7708,2.7735,2.7782,2.779,2.7746,2.783,2.7845,2.7925,2.7962,2.79,2.7906,2.8136,2.814,2.8143,2.8166,0,0,0,0,0,0,2.7498,2.7519,2.755,2.7605,2.7627,2.7737,2.7705,2.7712,2.7746,2.7744,2.7803,2.7811,2.783,2.7915,2.7931,2.797,2.7911,2.8132,2.8137,2.8142,2.8162,2.817,2.8177,0,0,0,0,0,2.749,2.7554,2.7552,2.757,2.7666,2.7739,2.7751,2.777,2.7749,2.7782,2.7812,2.7809,2.7956,2.7923,2.7941,2.7983,2.813,2.8136,2.8141,2.8159,2.8168,2.8177,0,0,0,0,0,0,2.7504,2.7561,2.756,2.7642,2.7685,2.7738,2.7779,2.778,2.7831,2.7828,2.7851,2.7864,2.7943,2.7971,2.7934,2.8069,2.8041,2.805,2.8047,2.8057,2.8064,2.8055,2.7917,0,0,0,0,0,2.7516,2.7568,2.7616,2.7684,2.7706,2.7739,2.7771,2.7782,2.7828,2.7847,2.7883,2.793,2.7987,2.8024,2.8078,2.8166,2.818,2.8205,2.8212,2.8218,2.8226,2.8275,2.8286,2.8163,2.8163,2.8163,0,0,2.7543,2.758,2.7612,2.7688,2.7723,2.7778,2.7755,2.7814,2.7855,2.7857,2.7933,2.7961,2.8015,2.8099,2.8138,2.8125,2.8263,2.8225,2.8229,2.8234,2.8282,2.8293,2.8304,2.8167,2.8166,2.8166,0,0,2.7618,2.7652,2.7712,2.7748,2.78,2.7822,2.7836,2.789,2.7908,2.7984,2.7987,2.8038,2.8135,2.8173,2.8205,2.8297,2.8296,2.8315,2.8353,2.8401,2.841,2.8419,2.8452,2.8463,2.8322,2.8322,2.8323,0,2.7645,2.7726,2.7744,2.7803,2.7837,2.784,2.7902,2.7936,2.8004,2.8029,2.8013,2.8135,2.8171,2.8264,2.8286,2.8313,2.8331,2.8307,2.8407,2.8416,2.8425,2.8456,2.8468,2.8324,2.8324,2.8324,2.8324,0,2.7756,2.7813,2.7856,2.792,2.7959,2.8019,2.8048,2.8086,2.8094,2.8118,2.8196,2.824,2.8304,2.8327,2.8336,2.8422,2.8412,2.8402,2.8374,2.8438,2.8468,2.848,2.8327,2.8326,2.8326,2.8325,0,0,2.7842,2.7915,2.7931,2.796,2.8019,2.8064,2.8126,2.8187,2.8219,2.8267,2.8319,2.8402,2.8392,2.8429,2.8443,2.8484,2.8554,2.8469,2.8471,2.8483,2.8652,2.8658,2.8672,2.8555,2.8557,2.8559,2.8647,0,2.7923,2.803,2.8049,2.8143,2.8196,2.8201,2.8255,2.8297,2.8322,2.8372,2.84,2.8458,2.8441,2.8463,2.8505,2.8537,2.8588,2.8531,2.8605,2.8607,2.859,2.8688,2.8695,2.8776,2.8659,2.8661,2.8662,0,2.8032,2.8081,2.818,2.8232,2.8255,2.8303,2.8361,2.8408,2.8458,2.8473,2.8514,2.8523,2.8589,2.8558,2.865,2.861,2.8642,2.8663,2.8666,2.8673,2.8638,2.8696,2.8802,2.8814,2.8681,2.8679,2.8678,0,2.8084,2.8175,2.8246,2.8271,2.8334,2.8368,2.8396,2.8443,2.8479,2.853,2.8553,2.8613,2.8645,2.8691,2.8716,2.8692,2.8806,2.8778,2.8821,2.8821,2.8844,2.8842,2.8956,2.8867,2.8866,2.8866,2.8866,0,2.8172,2.8232,2.827,2.8314,2.8382,2.8404,2.8472,2.85,2.8542,2.8592,2.8601,2.8649,2.8679,2.8732,2.8753,2.8825,2.884,2.8855,2.886,2.8854,2.8852,2.8874,2.8869,2.8869,2.8869,2.8868,2.8867,0,2.824,2.8268,2.8346,2.8399,2.8414,2.8462,2.8508,2.8552,2.8577,2.8641,2.8657,2.8697,2.8759,2.8789,2.8867,2.8881,2.8963,2.8965,2.8946,2.8947,2.8989,2.8984,2.912,2.9138,2.9038,2.9039,2.9039,0,2.8294,2.834,2.8399,2.8432,2.8461,2.8515,2.8551,2.8576,2.8613,2.8674,2.871,2.8773,2.8824,2.8923,2.896,2.902,2.9023,2.9066,2.9032,2.9024,2.9023,2.9019,2.9024,2.9072,2.9073,2.9074,2.9074,0,2.8386,2.8398,2.8449,2.8505,2.8548,2.8594,2.8639,2.8666,2.8699,2.8741,2.8804,2.8843,2.8922,2.8984,2.9047,2.9078,2.9082,2.9085,2.9098,2.9092,2.9078,2.9085,2.8962,2.9081,2.9081,2.908,2.908,2.908,2.8449,2.849,2.8538,2.8594,2.8631,2.8673,2.8716,2.8747,2.8799,2.8864,2.8876,2.8943,2.8994,2.9077,2.9111,2.9165,2.9155,2.9174,2.9179,2.9183,2.9184,2.9071,2.9176,2.9176,2.9176,2.9176,2.9176,0,2.8541,2.8572,2.8624,2.8686,2.8731,2.873,2.8781,2.8819,2.8877,2.8923,2.8973,2.9046,2.9106,2.9148,2.921,2.9245,2.9249,2.926,2.9257,2.9265,2.919,2.9172,2.9257,2.9256,2.9256,2.9256,2.9256,2.9256,2.8594,2.8664,2.8681,2.877,2.8802,2.8866,2.8895,2.8934,2.8971,2.9051,2.9101,2.9128,2.9172,2.9238,2.9294,2.9305,2.9327,2.9339,2.9349,2.9278,2.927,2.9262,2.9245,2.9343,2.9344,2.9419,2.942,2.9421]},{"header":{"parameterUnit":"m.s-1","parameterCategory":1,"la1":30.2991,"la2":30.254,"lo1":-89.0895,"lo2":-89.0444,"dy":0.0017,"dx":0.0017,"nx":28,"ny":28,"refTime":"2025-04-09T21:00:00:Z","depth":0,"parameterNumber":3,"parameterNumberName":"V-component_of_WINDS"},"data":[0,0,0,0,0,0,0,0,0,0,0,0,0,0,0,0,0,0,0,0,0,0,0,0,0,0,0,0,0,0,0,0,0,0,0,0,0,0,0,0,0,0,0,0,0,0,0,0,0,0,0,0,0,0,0,0,0,0,3.5431,3.5432,0,3.5516,3.5517,3.5518,3.5533,3.5533,3.5532,3.5531,3.5612,3.5615,3.5618,0,0,0,0,0,0,0,0,0,0,0,0,0,3.5274,3.5277,3.5431,3.5432,3.5433,3.5516,3.5517,3.5518,3.5533,3.5533,3.5532,3.5531,3.5611,3.5614,3.5618,0,0,0,0,0,0,0,0,0,0,0,0,0,3.5349,3.5278,3.5431,3.5451,3.5454,3.5516,3.5517,3.5518,3.5534,3.5533,3.5532,3.5531,3.561,3.5614,3.5618,3.5664,0,0,3.5631,3.5633,0,0,0,0,0,0,0,0,3.5344,3.5354,3.5447,3.545,3.5453,3.5513,3.5491,3.5567,3.5534,3.5503,3.5531,3.553,3.558,3.5586,3.5604,3.5668,3.5672,3.5631,3.5634,3.5636,3.5637,0,0,0,0,0,0,0,3.5339,3.5351,3.5465,3.5448,3.5452,3.5453,3.5462,3.5506,3.5546,3.5506,3.5507,3.5517,3.5581,3.56,3.5606,3.5673,3.5631,3.5635,3.5638,3.5639,3.5774,3.5775,0,0,0,0,0,0,3.5331,3.5346,3.5462,3.5467,3.5395,3.5457,3.5467,3.5495,3.5545,3.5552,3.5518,3.5518,3.5593,3.5601,3.5609,3.5664,3.5636,3.564,3.5642,3.5773,3.5774,3.5775,0,0,0,0,0,0,3.5328,3.5342,3.5458,3.5407,3.5422,3.546,3.5491,3.5497,3.5516,3.5555,3.5561,3.5531,3.5593,3.5603,3.565,3.5667,3.5641,3.5645,3.5772,3.5773,3.5775,3.5775,0,0,0,0,0,0,3.5324,3.534,3.5361,3.5408,3.5425,3.5501,3.5492,3.5499,3.5524,3.5524,3.5569,3.5575,3.5593,3.5644,3.5654,3.5672,3.5649,3.577,3.5772,3.5774,3.5774,3.5776,3.5779,0,0,0,0,0,3.5318,3.5357,3.5362,3.5375,3.5451,3.5502,3.5511,3.5533,3.5526,3.5544,3.5568,3.5573,3.5663,3.5648,3.566,3.568,3.5769,3.5772,3.5774,3.5772,3.5776,3.5779,0,0,0,0,0,0,3.531,3.5364,3.5369,3.5425,3.5459,3.5504,3.5529,3.5537,3.5572,3.557,3.5594,3.5604,3.5648,3.5669,3.5651,3.5725,3.5715,3.572,3.571,3.5713,3.5716,3.5709,3.5652,0,0,0,0,0,3.5315,3.5353,3.5397,3.5442,3.5459,3.5491,3.5514,3.5527,3.5562,3.5576,3.5604,3.5636,3.567,3.5693,3.5728,3.5776,3.5784,3.5795,3.5798,3.58,3.5803,3.5827,3.5831,3.5783,3.5783,3.5783,0,0,3.5325,3.5359,3.5382,3.5441,3.5469,3.5505,3.5503,3.5542,3.5569,3.5582,3.5627,3.5648,3.5685,3.5732,3.5754,3.575,3.5818,3.5803,3.5804,3.5807,3.583,3.5834,3.5838,3.5785,3.5785,3.5784,0,0,3.5361,3.5393,3.5432,3.5459,3.5501,3.5522,3.5531,3.5575,3.559,3.5636,3.5646,3.5676,3.5737,3.5761,3.5782,3.5824,3.5828,3.5834,3.5847,3.587,3.5874,3.5877,3.589,3.5894,3.5838,3.5838,3.5838,0,3.5368,3.5426,3.5451,3.5489,3.5513,3.5528,3.5565,3.559,3.564,3.5655,3.5651,3.5725,3.5751,3.5802,3.5812,3.5829,3.5838,3.5829,3.5872,3.5875,3.5879,3.5891,3.5896,3.5838,3.5838,3.5838,3.5838,0,3.5431,3.547,3.5496,3.5546,3.5573,3.5611,3.5637,3.5661,3.5672,3.5692,3.5736,3.5768,3.5807,3.582,3.5831,3.5872,3.5868,3.5868,3.5858,3.5883,3.5895,3.59,3.5839,3.5839,3.5839,3.5838,0,0,3.5466,3.5527,3.5536,3.5556,3.5602,3.5632,3.5668,3.5709,3.5727,3.5761,3.579,3.5839,3.5838,3.5861,3.5874,3.5894,3.5922,3.5891,3.5892,3.5893,3.5965,3.5964,3.597,3.5925,3.5926,3.5927,3.5961,0,3.5506,3.5575,3.5596,3.5652,3.5687,3.5699,3.573,3.576,3.5778,3.5808,3.5828,3.5862,3.5859,3.5873,3.5893,3.5914,3.5936,3.5912,3.595,3.5951,3.5939,3.5976,3.5976,3.6007,3.5966,3.5967,3.5968,0,3.5563,3.5598,3.5658,3.5696,3.5712,3.574,3.5776,3.5806,3.5838,3.585,3.5874,3.5885,3.592,3.5909,3.5956,3.5939,3.5955,3.5967,3.5969,3.5972,3.596,3.5978,3.6018,3.6022,3.5975,3.5975,3.5974,0,3.558,3.5642,3.5684,3.5702,3.5749,3.5768,3.5788,3.5819,3.5841,3.5872,3.5885,3.592,3.5938,3.5962,3.5981,3.5972,3.6024,3.6016,3.6033,3.6032,3.6043,3.6042,3.6084,3.6056,3.6056,3.6055,3.6055,0,3.5622,3.5657,3.5692,3.5718,3.5757,3.5779,3.5816,3.5836,3.5863,3.5891,3.5903,3.5928,3.5952,3.5979,3.5993,3.6028,3.6036,3.6045,3.6048,3.6043,3.6042,3.6053,3.6051,3.6057,3.6056,3.6056,3.6056,0,3.5647,3.5672,3.5719,3.5759,3.577,3.5796,3.5829,3.5853,3.5871,3.5906,3.5915,3.5943,3.5976,3.5997,3.6038,3.6047,3.6085,3.6088,3.6074,3.6075,3.609,3.6088,3.614,3.6147,3.6115,3.6116,3.6116,0,3.5671,3.5699,3.5741,3.5762,3.5782,3.5815,3.5836,3.5858,3.588,3.5917,3.5936,3.597,3.5998,3.6048,3.6071,3.6101,3.6104,3.612,3.6109,3.6102,3.6102,3.61,3.6101,3.6122,3.6122,3.6122,3.6123,0,3.5711,3.5722,3.5754,3.579,3.5816,3.5845,3.5874,3.5889,3.5915,3.5938,3.5972,3.5994,3.6036,3.6068,3.61,3.6117,3.6123,3.6126,3.6131,3.6126,3.6116,3.6119,3.6077,3.6125,3.6124,3.6124,3.6124,3.6124,3.5735,3.5759,3.5792,3.5826,3.585,3.5876,3.59,3.5921,3.5951,3.5988,3.5998,3.6033,3.6061,3.6105,3.6123,3.6148,3.6146,3.6154,3.6155,3.6157,3.6156,3.6113,3.6154,3.6154,3.6154,3.6154,3.6154,0,3.5773,3.5795,3.5827,3.5867,3.5893,3.5898,3.5929,3.595,3.5981,3.6007,3.6035,3.6072,3.6102,3.6127,3.6157,3.6173,3.6176,3.618,3.6178,3.6181,3.6157,3.6149,3.6176,3.6176,3.6176,3.6176,3.6176,3.6176,3.5796,3.5836,3.585,3.59,3.5921,3.5956,3.5973,3.5996,3.6017,3.6059,3.6084,3.6101,3.6125,3.6157,3.6184,3.619,3.62,3.6203,3.6209,3.6186,3.6183,3.6181,3.6173,3.6205,3.6205,3.6231,3.6231,3.6231]}]]